Terminal Aerodrome Forecast
Issued by NWS Corpus Christi, TX

Home | Current Version | Previous Version | Text Only | Print | Product List | Glossary On
Versions: 1 2 3 4 5 6 7 8 9 10 11 12
000
FTUS44 KCRP 202300
TAFVCT
TAF
KVCT 202337Z 2100/2124 15018G25KT P6SM SCT050 SCT250
     FM210100 16010KT P6SM FEW025
     FM210900 15006KT P6SM SCT015
      TEMPO 2110/2114 BKN015
     FM211500 17015KT P6SM SCT035
     FM211900 16018G25KT P6SM SCT045=

USA.gov is the U.S. government's official web portal to all federal, state and local government web resources and services.